Location: Shepherdstown, WV
(39.4326°N, 77.8042°W)
Time: 13:43:34
(UTC-04:00)

Vanguard 1 Rocket - Pass Details

Date: 15 August 2021
Orbit: 650 x 4226 km, 34.3° (Epoch: 20 September)

Event Time Altitude Azimuth Distance (km) Brightness Sun altitude
Rises 12:23:25 0° 281° (W) 8,338 12.1 61.9°
Reaches altitude 10° 12:29:46 10° 278° (W) 7,045 11.9 62.5°
Maximum altitude 12:50:28 56° 209° (SSW) 2,998 11.6 63.8°
Drops below altitude 10° 13:01:33 10° 134° (SE) 3,995 11.1 64.2°
Sets 13:04:06 0° 130° (SE) 4,646 11.3 64.3°
